Regional Weather Roundup
Issued by NWS

Home | Current Version | Previous Version | Graphics & Text | Print | Product List | Glossary On
Versions: 1 2 3 4 5 6 7 8 9 10 11 12 13 14 15 16 17 18 19 20 21 22 23 24 25 26 27 28 29 30 31 32 33 34 35 36 37 38 39 40 41 42 43 44 45 46 47 48 49 50
000
ASUS43 KIND 161359
RWRIN

WEATHER ROUNDUP FOR INDIANA
NATIONAL WEATHER SERVICE INDIANAPOLIS IN
1000 AM EDT WED APR 16 2014

NOTE: "FAIR" INDICATES FEW OR NO CLOUDS BELOW 12,000 FEET WITH NO
SIGNIFICANT WEATHER AND/OR OBSTRUCTIONS TO VISIBILITY.

* - STATION DOES NOT REPORT WEATHER SUCH AS PRECIPITATION OR FOG.

+ - STATION NOT QUALITY CONTROLLED BY THE NATIONAL WEATHER SERVICE.
    USE DATA WITH CAUTION...ESPECIALLY DEWPOINT AND RELATIVE
    HUMIDITY OBSERVATIONS.

INZ001>003-010>013-019-020-161500-
NORTHWEST INDIANA

CITY           SKY/WX    TMP DP  RH WIND       PRES   REMARKS
GARY /AIRPORT/ MOSUNNY   37  21  52 SE12      30.34R
VALPARAISO     SUNNY     34  21  59 SE14      30.35R WCI  25

$$

LMZ046-743>745-161500-
SOUTHERN LAKE MICHIGAN

STATION/POSITION TIME  TEMP WIND        PRES
                       AIR  DIR/SP/G
                 (UTC) (F)  (DEG/KT/KT) (MB)
MICHIGAN CITY    1300   33  140/ 11/ 17   N/A

$$

INZ004-005-014>016-021>024-161500-
NORTH CENTRAL INDIANA

CITY           SKY/WX    TMP DP  RH WIND       PRES   REMARKS
ELKHART        SUNNY     36  16  44 S9        30.39R
GOSHEN         SUNNY     36  16  44 SE12      30.39R
SOUTH BEND     SUNNY     36  17  46 SE12      30.37R

$$

INZ006>009-017-018-025>027-161500-
NORTHEAST INDIANA

CITY           SKY/WX    TMP DP  RH WIND       PRES   REMARKS
ANGOLA *+      SUNNY     32  16  51 S12       30.39S WCI  23
FORT WAYNE     MOSUNNY   35  17  47 SE13      30.41R WCI  26

$$

INZ028-029-035-036-043>045-051>053-161500-
WEST CENTRAL INDIANA

CITY           SKY/WX    TMP DP  RH WIND       PRES   REMARKS
GREENCASTLE +  SUNNY     36  23  60 SE12      30.36S
LAFAYETTE      SUNNY     36  20  52 SE13G21   30.36S
TERRE HAUTE    SUNNY     38  24  57 SE10      30.36S

$$

INZ030>032-037>040-046>048-054>057-064-065-161500-
CENTRAL INDIANA

CITY           SKY/WX    TMP DP  RH WIND       PRES   REMARKS
ANDERSON       SUNNY     34  18  51 SE17G23   30.40S WCI  23
COLUMBUS       SUNNY     36  19  51 SE12      30.40S
INDIANAPOLIS   MOSUNNY   34  18  52 SE12      30.37R WCI  25
-EAGLE CREEK   SUNNY     35  17  47 SE10      30.37S WCI  27
KOKOMO *+      SUNNY     36  21  55 S14       30.37F
MT COMFORT *+  SUNNY     36  23  60 SE10      30.39R
SHELBYVILLE    SUNNY     37  18  46 SE14      30.38F

$$

INZ033-034-041-042-049-050-058-059-161500-
EAST CENTRAL INDIANA

CITY           SKY/WX    TMP DP  RH WIND       PRES   REMARKS
MUNCIE         SUNNY     34  15  46 S10       30.39S WCI  26

$$

INZ060-061-067>069-081>083-085>088-161500-
SOUTHWEST INDIANA

CITY           SKY/WX    TMP DP  RH WIND       PRES   REMARKS
EVANSVILLE     MOSUNNY   39  21  48 SE13G18   30.36S
HUNTINGBURG *+ MOSUNNY   37  21  52 SE15      30.37R

$$

INZ062-063-066-070>080-084-089>092-161500-
SOUTH CENTRAL AND SOUTHEAST INDIANA

CITY           SKY/WX    TMP DP  RH WIND       PRES   REMARKS
BLOOMINGTON    SUNNY     37  20  50 SE9       30.35F

$$




USA.gov is the U.S. government's official web portal to all federal, state and local government web resources and services.